Simultaneous Nadir Overpasses (SNOs) Predictions

Prediction of SNOs between NOAA-19 and METOP-C Satellite Orbit:

Table of predicted SNOs for the next 14.0 days since TLE Epoch: 1/28/2024
Index Date (NOAA-19) Time (NOAA-19) Lat,Lon (NOAA-19) SZA (NOAA-19 ) Date (METOP-C) Time (METOP-C) Lat,Lon (METOP-C) SZA (METOP-C ) Distance(km) Time Diff (sec)
1 02/05/2024 13:58:14 -80.57, 178.99 82.66 02/05/2024 13:59:09 -80.57, 179.01 82.65 0.32 55
2 02/05/2024 14:49:09 80.58, -13.42 97.37 02/05/2024 14:49:49 80.58, -13.49 97.37 1.43 40
3 02/05/2024 15:40:10 -80.61, 154.34 82.59 02/05/2024 15:40:29 -80.60, 154.18 82.60 2.89 19
4 02/05/2024 16:31:06 80.61, -38.42 97.40 02/05/2024 16:31:09 80.61, -38.32 97.41 1.93 3
5 02/05/2024 17:22:08 -80.61, 128.99 82.60 02/05/2024 17:21:50 -80.61, 129.02 82.60 0.56 18
6 02/05/2024 18:13:03 80.63, -63.41 97.43 02/05/2024 18:12:30 80.63, -63.48 97.42 1.36 33
7 02/05/2024 19:04:05 -80.64, 103.99 82.57 02/05/2024 19:03:11 -80.63, 103.86 82.60 2.65 54



Historial Predications of SNOs between NOAA-19 and METOP-C
